| time (UTC) | temp F | wind direction | speed MPH | gust MPH | rain 1hr in | rain 24hr in | rain mn in | humidity % | barometer mb |
| 20260906212036 | 78 | 24 | 4.0 | 8.0 | 0.00 | 0.02 | 0.02 | 68 | 975.1 |
| 20260906211535 | 78 | 236 | 1.0 | 7.0 | 0.00 | 0.02 | 0.02 | 68 | 975.1 |
| 20260906211036 | 79 | 360 | 3.0 | 7.0 | 0.00 | 0.02 | 0.02 | 68 | 975.1 |
| 20260906210536 | 79 | 275 | 2.0 | 7.0 | 0.00 | 0.02 | 0.02 | 68 | 975.0 |
| 20260906210039 | 79 | 273 | 1.0 | 9.0 | 0.00 | 0.02 | 0.02 | 68 | 975.0 |
| 20260906205534 | 79 | 234 | 2.0 | 9.0 | 0.00 | 0.02 | 0.02 | 68 | 975.1 |
| 20260906205034 | 79 | 5 | 1.0 | 9.0 | 0.00 | 0.02 | 0.02 | 68 | 975.1 |
| 20260906204534 | 79 | 254 | 2.0 | 9.0 | 0.00 | 0.02 | 0.02 | 69 | 975.0 |
| 20260906204033 | 79 | 19 | 1.0 | 5.0 | 0.00 | 0.02 | 0.02 | 68 | 974.9 |
| 20260906203533 | 79 | 5 | 2.0 | 9.0 | 0.00 | 0.02 | 0.02 | 68 | 975.0 |
| 20260906203033 | 79 | 49 | 3.0 | 9.0 | 0.00 | 0.02 | 0.02 | 67 | 975.0 |
| 20260906202533 | 80 | 5 | 1.0 | 5.0 | 0.00 | 0.02 | 0.02 | 68 | 974.9 |
| 20260906202033 | 80 | 9 | 2.0 | 5.0 | 0.00 | 0.02 | 0.02 | 67 | 974.8 |
| 20260906201540 | 80 | 271 | 1.0 | 6.0 | 0.00 | 0.02 | 0.02 | 67 | 974.8 |
| 20260906201033 | 80 | 13 | 1.0 | 9.0 | 0.00 | 0.02 | 0.02 | 69 | 974.7 |
| 20260906200532 | 79 | 64 | 2.0 | 9.0 | 0.00 | 0.02 | 0.02 | 69 | 974.9 |
| 20260906200035 | 79 | 259 | 2.0 | 9.0 | 0.00 | 0.02 | 0.02 | 68 | 975.0 |
| 20260906195530 | 79 | 271 | 2.0 | 7.0 | 0.00 | 0.02 | 0.02 | 71 | 975.0 |
| 20260906195033 | 79 | 271 | 2.0 | 9.0 | 0.00 | 0.02 | 0.02 | 71 | 974.9 |
| 20260906194531 | 79 | 268 | 2.0 | 9.0 | 0.00 | 0.02 | 0.02 | 71 | 974.8 |
| 20260906194030 | 78 | 267 | 2.0 | 9.0 | 0.00 | 0.02 | 0.02 | 73 | 974.9 |
| 20260906193530 | 78 | 265 | 1.0 | 8.0 | 0.01 | 0.02 | 0.02 | 75 | 975.1 |
| 20260906193030 | 77 | 271 | 2.0 | 8.0 | 0.02 | 0.02 | 0.02 | 77 | 975.1 |
| 20260906192530 | 76 | 199 | 3.0 | 8.0 | 0.02 | 0.02 | 0.02 | 79 | 975.2 |
| 20260906192030 | 75 | 240 | 4.0 | 8.0 | 0.02 | 0.02 | 0.02 | 81 | 975.2 |
| 20260906191530 | 75 | 211 | 3.0 | 8.0 | 0.02 | 0.02 | 0.02 | 81 | 975.3 |
| 20260906191029 | 75 | 211 | 1.0 | 6.0 | 0.02 | 0.02 | 0.02 | 83 | 975.4 |
| 20260906190529 | 75 | 199 | 2.0 | 11.0 | 0.02 | 0.02 | 0.02 | 83 | 975.4 |
| 20260906190031 | 75 | 202 | 5.0 | 11.0 | 0.02 | 0.02 | 0.02 | 83 | 975.3 |
| 20260906185529 | 75 | 205 | 1.0 | 6.0 | 0.02 | 0.02 | 0.02 | 87 | 975.3 |
| 20260906185032 | 74 | 205 | 1.0 | 6.0 | 0.02 | 0.02 | 0.02 | 84 | 975.3 |
| 20260906184536 | 75 | 210 | 1.0 | 7.0 | 0.02 | 0.02 | 0.02 | 82 | 975.3 |
| 20260906184028 | 76 | 235 | 2.0 | 8.0 | 0.02 | 0.02 | 0.02 | 79 | 975.3 |
| 20260906183528 | 77 | 190 | 2.0 | 8.0 | 0.01 | 0.01 | 0.01 | 75 | 975.4 |
| 20260906183036 | 78 | 236 | 1.0 | 7.0 | 0.00 | 0.00 | 0.00 | 72 | 975.3 |
| 20260906182527 | 78 | 233 | 2.0 | 9.0 | 0.00 | 0.00 | 0.00 | 71 | 975.2 |
| 20260906182028 | 79 | 275 | 4.0 | 9.0 | 0.00 | 0.00 | 0.00 | 71 | 975.3 |
| 20260906181535 | 79 | 265 | 2.0 | 9.0 | 0.00 | 0.00 | 0.00 | 71 | 975.2 |
| 20260906181027 | 79 | 178 | 3.0 | 7.0 | 0.00 | 0.00 | 0.00 | 70 | 975.2 |
| 20260906180527 | 80 | 248 | 2.0 | 10.0 | 0.00 | 0.00 | 0.00 | 70 | 975.1 |
| 20260906180027 | 79 | 233 | 2.0 | 10.0 | 0.00 | 0.00 | 0.00 | 71 | 975.1 |
| 20260906175530 | 79 | 85 | 2.0 | 12.0 | 0.00 | 0.00 | 0.00 | 71 | 975.1 |
| 20260906175030 | 80 | 273 | 2.0 | 12.0 | 0.00 | 0.00 | 0.00 | 71 | 975.0 |
| 20260906174526 | 80 | 17 | 2.0 | 7.0 | 0.00 | 0.00 | 0.00 | 71 | 974.9 |
| 20260906174026 | 80 | 231 | 2.0 | 6.0 | 0.00 | 0.00 | 0.00 | 70 | 975.1 |
| 20260906173525 | 81 | 238 | 2.0 | 8.0 | 0.00 | 0.00 | 0.00 | 71 | 974.9 |
| 20260906173026 | 81 | 266 | 2.0 | 7.0 | 0.00 | 0.00 | 0.00 | 70 | 975.0 |
| 20260906172529 | 81 | 360 | 2.0 | 10.0 | 0.00 | 0.00 | 0.00 | 71 | 975.1 |
| 20260906172025 | 80 | 271 | 3.0 | 10.0 | 0.00 | 0.00 | 0.00 | 72 | 975.1 |
| 20260906171526 | 80 | 274 | 3.0 | 8.0 | 0.00 | 0.00 | 0.00 | 71 | 975.0 |
| 20260906171025 | 81 | 360 | 2.0 | 10.0 | 0.00 | 0.00 | 0.00 | 71 | 975.0 |
| 20260906170524 | 82 | 34 | 3.0 | 10.0 | 0.00 | 0.00 | 0.00 | 71 | 975.2 |
| 20260906170029 | 81 | 11 | 2.0 | 8.0 | 0.00 | 0.00 | 0.00 | 74 | 975.3 |
| 20260906165524 | 80 | 271 | 1.0 | 7.0 | 0.00 | 0.00 | 0.00 | 75 | 975.4 |
| 20260906165022 | 80 | 270 | 1.0 | 8.0 | 0.00 | 0.00 | 0.00 | 75 | 975.4 |
| 20260906164522 | 80 | 271 | 2.0 | 10.0 | 0.00 | 0.00 | 0.00 | 74 | 975.6 |
| 20260906164022 | 80 | 32 | 3.0 | 10.0 | 0.00 | 0.00 | 0.00 | 76 | 975.6 |
| 20260906163523 | 80 | 270 | 1.0 | 10.0 | 0.00 | 0.00 | 0.00 | 75 | 975.6 |
| 20260906163022 | 80 | 18 | 3.0 | 10.0 | 0.00 | 0.00 | 0.00 | 74 | 975.4 |
| 20260906162522 | 81 | 360 | 2.0 | 9.0 | 0.00 | 0.00 | 0.00 | 73 | 975.5 |
| 20260906162021 | 81 | 16 | 1.0 | 9.0 | 0.00 | 0.00 | 0.00 | 74 | 975.5 |
| 20260906161520 | 79 | 270 | 2.0 | 7.0 | 0.00 | 0.00 | 0.00 | 76 | 975.6 |
| 20260906161020 | 79 | 17 | 1.0 | 6.0 | 0.00 | 0.00 | 0.00 | 76 | 975.6 |
| 20260906160520 | 78 | 52 | 2.0 | 6.0 | 0.00 | 0.00 | 0.00 | 75 | 975.7 |
| 20260906160018 | 79 | 360 | 1.0 | 5.0 | 0.00 | 0.00 | 0.00 | 75 | 975.8 |
| 20260906155521 | 79 | 360 | 1.0 | 5.0 | 0.00 | 0.00 | 0.00 | 74 | 975.9 |
| 20260906155018 | 79 | 360 | 2.0 | 6.0 | 0.00 | 0.00 | 0.00 | 75 | 975.9 |
| 20260906154517 | 79 | 9 | 2.0 | 6.0 | 0.00 | 0.00 | 0.00 | 76 | 975.7 |
| 20260906154018 | 78 | 263 | 1.0 | 4.0 | 0.00 | 0.00 | 0.00 | 76 | 975.8 |
| 20260906153515 | 78 | 271 | 0.0 | 4.0 | 0.00 | 0.00 | 0.00 | 78 | 975.8 |
| 20260906153022 | 78 | 271 | 1.0 | 4.0 | 0.00 | 0.00 | 0.00 | 77 | 975.9 |
| 20260906152515 | 78 | 271 | 1.0 | 6.0 | 0.00 | 0.00 | 0.00 | 78 | 975.9 |
| 20260906152014 | 77 | 271 | 0.0 | 6.0 | 0.00 | 0.00 | 0.00 | 78 | 975.9 |
| 20260906151514 | 77 | 274 | 1.0 | 6.0 | 0.00 | 0.00 | 0.00 | 78 | 975.9 |
| 20260906151014 | 77 | 274 | 1.0 | 6.0 | 0.00 | 0.00 | 0.00 | 78 | 975.8 |
| 20260906150513 | 77 | 262 | 1.0 | 3.0 | 0.00 | 0.00 | 0.00 | 78 | 975.8 |
| 20260906150016 | 77 | 248 | 0.0 | 4.0 | 0.00 | 0.00 | 0.00 | 78 | 975.8 |
| 20260906145518 | 77 | 248 | 0.0 | 4.0 | 0.00 | 0.00 | 0.00 | 78 | 975.8 |
| 20260906145016 | 77 | 248 | 1.0 | 4.0 | 0.00 | 0.00 | 0.00 | 78 | 975.8 |
| 20260906144516 | 76 | 238 | 1.0 | 4.0 | 0.00 | 0.00 | 0.00 | 80 | 975.8 |
| 20260906144009 | 76 | 238 | 1.0 | 5.0 | 0.00 | 0.00 | 0.00 | 79 | 975.9 |
| 20260906143513 | 76 | 248 | 2.0 | 5.0 | 0.00 | 0.00 | 0.00 | 79 | 975.8 |
| 20260906143015 | 76 | 270 | 0.0 | 3.0 | 0.00 | 0.00 | 0.00 | 79 | 975.8 |
| 20260906142508 | 76 | 270 | 0.0 | 3.0 | 0.00 | 0.00 | 0.00 | 80 | 975.8 |
| 20260906142007 | 76 | 270 | 1.0 | 4.0 | 0.00 | 0.00 | 0.00 | 81 | 975.9 |
| 20260906141505 | 75 | 271 | 1.0 | 4.0 | 0.00 | 0.00 | 0.00 | 82 | 975.9 |
| 20260906141005 | 75 | 271 | 0.0 | 3.0 | 0.00 | 0.00 | 0.00 | 82 | 975.9 |
| 20260906140504 | 75 | 271 | 1.0 | 3.0 | 0.00 | 0.00 | 0.00 | 82 | 976.0 |
| 20260906140011 | 74 | 271 | 0.0 | 3.0 | 0.00 | 0.00 | 0.00 | 83 | 976.0 |
| 20260906135504 | 74 | 271 | 0.0 | 2.0 | 0.00 | 0.00 | 0.00 | 83 | 976.0 |
| 20260906135002 | 74 | 271 | 0.0 | 2.0 | 0.00 | 0.00 | 0.00 | 84 | 976.0 |
| 20260906134501 | 74 | 271 | 0.0 | 2.0 | 0.00 | 0.00 | 0.00 | 84 | 976.0 |
| 20260906134103 | 74 | 271 | 0.0 | 3.0 | 0.00 | 0.00 | 0.00 | 84 | 975.9 |
| 20260906133600 | 73 | 271 | 1.0 | 3.0 | 0.00 | 0.00 | 0.00 | 84 | 975.9 |
| 20260906133117 | 73 | 271 | 1.0 | 3.0 | 0.00 | 0.00 | 0.00 | 84 | 975.9 |
| 20260906132600 | 73 | 271 | 0.0 | 3.0 | 0.00 | 0.00 | 0.00 | 84 | 976.0 |
| 20260906132059 | 73 | 271 | 0.0 | 2.0 | 0.00 | 0.00 | 0.00 | 84 | 976.0 |
| 20260906131602 | 73 | 271 | 0.0 | 2.0 | 0.00 | 0.00 | 0.00 | 84 | 975.9 |
| 20260906131057 | 73 | 271 | 0.0 | 2.0 | 0.00 | 0.00 | 0.00 | 84 | 975.8 |
| 20260906130559 | 73 | 271 | 0.0 | 4.0 | 0.00 | 0.00 | 0.00 | 84 | 975.8 |
| 20260906130112 | 73 | 271 | 1.0 | 4.0 | 0.00 | 0.00 | 0.00 | 84 | 975.8 |
| 20260906125557 | 73 | 271 | 0.0 | 2.0 | 0.00 | 0.00 | 0.00 | 84 | 975.7 |
| 20260906125057 | 73 | 271 | 0.0 | 4.0 | 0.00 | 0.00 | 0.00 | 85 | 975.7 |
| 20260906124556 | 73 | 271 | 1.0 | 4.0 | 0.00 | 0.00 | 0.00 | 85 | 975.7 |
| 20260906124056 | 73 | 271 | 1.0 | 3.0 | 0.00 | 0.00 | 0.00 | 85 | 975.7 |
| 20260906123555 | 73 | 271 | 0.0 | 3.0 | 0.00 | 0.00 | 0.00 | 85 | 975.6 |
| 20260906123054 | 73 | 271 | 0.0 | 3.0 | 0.00 | 0.00 | 0.00 | 86 | 975.6 |
| 20260906122557 | 73 | 271 | 0.0 | 3.0 | 0.00 | 0.00 | 0.00 | 86 | 975.5 |
| 20260906122054 | 73 | 271 | 1.0 | 3.0 | 0.00 | 0.00 | 0.00 | 87 | 975.4 |
| 20260906121555 | 73 | 271 | 0.0 | 1.0 | 0.00 | 0.00 | 0.00 | 87 | 975.3 |
| 20260906121051 | 73 | 271 | 0.0 | 2.0 | 0.00 | 0.00 | 0.00 | 87 | 975.1 |
| 20260906120554 | 73 | 271 | 0.0 | 3.0 | 0.00 | 0.00 | 0.00 | 87 | 975.0 |
| 20260906120052 | 73 | 271 | 1.0 | 3.0 | 0.00 | 0.00 | 0.00 | 87 | 975.0 |
| 20260906115550 | 73 | 271 | 0.0 | 4.0 | 0.00 | 0.00 | 0.00 | 88 | 974.9 |
| 20260906115050 | 73 | 271 | 0.0 | 4.0 | 0.00 | 0.00 | 0.00 | 88 | 974.7 |
| 20260906114548 | 72 | 270 | 0.0 | 3.0 | 0.00 | 0.00 | 0.00 | 88 | 974.8 |
| 20260906114047 | 72 | 270 | 0.0 | 2.0 | 0.00 | 0.00 | 0.00 | 89 | 974.7 |
| 20260906113547 | 72 | 270 | 0.0 | 3.0 | 0.00 | 0.00 | 0.00 | 89 | 974.7 |
| 20260906113047 | 72 | 270 | 0.0 | 2.0 | 0.00 | 0.00 | 0.00 | 89 | 974.6 |
| 20260906112546 | 72 | 270 | 0.0 | 0.0 | 0.00 | 0.00 | 0.00 | 89 | 974.5 |
| 20260906112046 | 72 | 270 | 0.0 | 0.0 | 0.00 | 0.00 | 0.00 | 89 | 974.5 |
| 20260906111553 | 72 | 270 | 0.0 | 0.0 | 0.00 | 0.00 | 0.00 | 89 | 974.5 |
| 20260906111050 | 72 | 270 | 0.0 | 0.0 | 0.00 | 0.00 | 0.00 | 89 | 974.4 |
| 20260906110546 | 72 | 270 | 0.0 | 0.0 | 0.00 | 0.00 | 0.00 | 89 | 974.4 |
| 20260906110055 | 72 | 270 | 0.0 | 0.0 | 0.00 | 0.00 | 0.00 | 89 | 974.3 |
| 20260906105545 | 72 | 270 | 0.0 | 0.0 | 0.00 | 0.00 | 0.00 | 89 | 974.2 |
| 20260906105045 | 72 | 270 | 0.0 | 0.0 | 0.00 | 0.00 | 0.00 | 89 | 974.2 |
| 20260906104543 | 72 | 270 | 0.0 | 0.0 | 0.00 | 0.00 | 0.00 | 89 | 974.3 |
| 20260906104044 | 72 | 270 | 0.0 | 0.0 | 0.00 | 0.00 | 0.00 | 89 | 974.2 |
| 20260906103543 | 72 | 270 | 0.0 | 0.0 | 0.00 | 0.00 | 0.00 | 90 | 974.3 |
| 20260906103044 | 72 | 270 | 0.0 | 0.0 | 0.00 | 0.00 | 0.00 | 90 | 974.4 |
| 20260906102543 | 71 | 270 | 0.0 | 0.0 | 0.00 | 0.00 | 0.00 | 90 | 974.3 |
| 20260906102042 | 71 | 270 | 0.0 | 0.0 | 0.00 | 0.00 | 0.00 | 90 | 974.3 |
| 20260906101542 | 71 | 270 | 0.0 | 0.0 | 0.00 | 0.00 | 0.00 | 90 | 974.2 |
| 20260906101041 | 71 | 270 | 0.0 | 0.0 | 0.00 | 0.00 | 0.00 | 90 | 974.2 |
| 20260906100541 | 71 | 270 | 0.0 | 0.0 | 0.00 | 0.00 | 0.00 | 90 | 974.2 |
| 20260906100048 | 71 | 270 | 0.0 | 0.0 | 0.00 | 0.00 | 0.00 | 90 | 974.1 |
| 20260906095541 | 71 | 270 | 0.0 | 1.0 | 0.00 | 0.00 | 0.00 | 90 | 974.1 |
| 20260906095040 | 71 | 270 | 0.0 | 1.0 | 0.00 | 0.00 | 0.00 | 90 | 974.1 |
| 20260906094546 | 71 | 270 | 0.0 | 0.0 | 0.00 | 0.00 | 0.00 | 90 | 974.1 |
| 20260906094039 | 71 | 270 | 0.0 | 0.0 | 0.00 | 0.00 | 0.00 | 90 | 974.1 |
| 20260906093539 | 71 | 270 | 0.0 | 0.0 | 0.00 | 0.00 | 0.00 | 90 | 974.0 |
| 20260906093053 | 71 | 270 | 0.0 | 0.0 | 0.00 | 0.00 | 0.00 | 90 | 973.9 |
| 20260906092539 | 71 | 270 | 0.0 | 0.0 | 0.00 | 0.00 | 0.00 | 90 | 974.0 |
| 20260906092039 | 71 | 270 | 0.0 | 1.0 | 0.00 | 0.00 | 0.00 | 90 | 974.0 |
| 20260906091538 | 71 | 270 | 0.0 | 1.0 | 0.00 | 0.00 | 0.00 | 90 | 974.0 |
| 20260906091038 | 70 | 270 | 0.0 | 0.0 | 0.00 | 0.00 | 0.00 | 90 | 973.9 |
| 20260906090539 | 70 | 270 | 0.0 | 0.0 | 0.00 | 0.00 | 0.00 | 90 | 973.8 |
| 20260906090107 | 70 | 270 | 0.0 | 0.0 | 0.00 | 0.00 | 0.00 | 90 | 973.7 |
| 20260906085540 | 70 | 270 | 0.0 | 0.0 | 0.00 | 0.00 | 0.00 | 90 | 973.7 |
| 20260906085040 | 70 | 270 | 0.0 | 0.0 | 0.00 | 0.00 | 0.00 | 90 | 973.7 |
| 20260906084540 | 70 | 270 | 0.0 | 0.0 | 0.00 | 0.00 | 0.00 | 90 | 973.6 |
| 20260906084038 | 70 | 270 | 0.0 | 0.0 | 0.00 | 0.00 | 0.00 | 90 | 973.6 |
| 20260906083536 | 70 | 270 | 0.0 | 0.0 | 0.00 | 0.00 | 0.00 | 90 | 973.5 |
| 20260906083041 | 70 | 270 | 0.0 | 0.0 | 0.00 | 0.00 | 0.00 | 90 | 973.5 |
| 20260906082536 | 70 | 270 | 0.0 | 0.0 | 0.00 | 0.00 | 0.00 | 90 | 973.4 |
| 20260906082036 | 70 | 270 | 0.0 | 2.0 | 0.00 | 0.00 | 0.00 | 90 | 973.3 |
| 20260906081536 | 70 | 270 | 0.0 | 2.0 | 0.00 | 0.00 | 0.00 | 90 | 973.2 |
| 20260906081036 | 69 | 270 | 0.0 | 0.0 | 0.00 | 0.00 | 0.00 | 90 | 973.3 |
| 20260906080534 | 69 | 270 | 0.0 | 0.0 | 0.00 | 0.00 | 0.00 | 90 | 973.3 |
| 20260906080035 | 69 | 270 | 0.0 | 0.0 | 0.00 | 0.00 | 0.00 | 90 | 973.3 |
| 20260906075535 | 69 | 270 | 0.0 | 0.0 | 0.00 | 0.00 | 0.00 | 90 | 973.2 |
| 20260906075035 | 69 | 270 | 0.0 | 0.0 | 0.00 | 0.00 | 0.00 | 89 | 973.3 |
| 20260906074546 | 69 | 270 | 0.0 | 0.0 | 0.00 | 0.00 | 0.00 | 89 | 973.3 |
| 20260906074033 | 69 | 270 | 0.0 | 0.0 | 0.00 | 0.00 | 0.00 | 89 | 973.2 |
| 20260906073534 | 69 | 270 | 0.0 | 0.0 | 0.00 | 0.00 | 0.00 | 89 | 973.2 |
| 20260906073033 | 69 | 270 | 0.0 | 0.0 | 0.00 | 0.00 | 0.00 | 89 | 973.2 |
| 20260906072533 | 69 | 270 | 0.0 | 0.0 | 0.00 | 0.00 | 0.00 | 89 | 973.1 |
| 20260906072032 | 69 | 270 | 0.0 | 0.0 | 0.00 | 0.00 | 0.00 | 89 | 973.1 |
| 20260906071532 | 70 | 270 | 0.0 | 0.0 | 0.00 | 0.00 | 0.00 | 89 | 973.2 |
| 20260906071030 | 70 | 270 | 0.0 | 0.0 | 0.00 | 0.00 | 0.00 | 88 | 973.4 |
| 20260906070529 | 70 | 270 | 0.0 | 0.0 | 0.00 | 0.00 | 0.00 | 89 | 973.5 |
| 20260906070029 | 70 | 270 | 0.0 | 0.0 | 0.00 | 0.00 | 0.00 | 88 | 973.4 |
| 20260906065529 | 70 | 270 | 0.0 | 0.0 | 0.00 | 0.00 | 0.00 | 88 | 973.5 |
| 20260906065028 | 70 | 270 | 0.0 | 0.0 | 0.00 | 0.00 | 0.00 | 88 | 973.5 |
| 20260906064526 | 70 | 270 | 0.0 | 0.0 | 0.00 | 0.00 | 0.00 | 88 | 973.6 |
| 20260906064027 | 70 | 270 | 0.0 | 0.0 | 0.00 | 0.00 | 0.00 | 88 | 973.6 |
| 20260906063527 | 70 | 270 | 0.0 | 0.0 | 0.00 | 0.00 | 0.00 | 87 | 973.6 |
| 20260906063026 | 70 | 270 | 0.0 | 1.0 | 0.00 | 0.00 | 0.00 | 87 | 973.7 |
| 20260906062525 | 70 | 270 | 0.0 | 2.0 | 0.00 | 0.00 | 0.00 | 87 | 973.6 |
| 20260906062025 | 71 | 270 | 0.0 | 2.0 | 0.00 | 0.00 | 0.00 | 87 | 973.7 |
| 20260906061525 | 71 | 270 | 0.0 | 0.0 | 0.00 | 0.00 | 0.00 | 87 | 973.7 |
| 20260906061024 | 71 | 270 | 0.0 | 0.0 | 0.00 | 0.00 | 0.00 | 87 | 973.7 |
| 20260906060525 | 71 | 270 | 0.0 | 2.0 | 0.00 | 0.00 | 0.00 | 87 | 973.7 |
| 20260906060025 | 71 | 270 | 0.0 | 2.0 | 0.00 | 0.00 | 0.00 | 87 | 973.8 |
| 20260906055524 | 71 | 270 | 0.0 | 2.0 | 0.00 | 0.00 | 0.00 | 86 | 973.8 |
| 20260906055024 | 71 | 270 | 1.0 | 2.0 | 0.00 | 0.00 | 0.00 | 86 | 973.8 |
| 20260906054523 | 71 | 270 | 0.0 | 0.0 | 0.00 | 0.00 | 0.00 | 86 | 973.8 |
| 20260906054022 | 71 | 270 | 0.0 | 0.0 | 0.00 | 0.00 | 0.00 | 86 | 973.9 |
| 20260906053522 | 71 | 270 | 0.0 | 0.0 | 0.00 | 0.00 | 0.00 | 86 | 973.9 |
| 20260906053022 | 71 | 270 | 0.0 | 0.0 | 0.00 | 0.00 | 0.00 | 86 | 973.9 |
| 20260906052521 | 71 | 270 | 0.0 | 0.0 | 0.00 | 0.00 | 0.00 | 85 | 973.8 |
| 20260906052020 | 71 | 270 | 0.0 | 0.0 | 0.00 | 0.00 | 0.00 | 85 | 973.8 |
| 20260906051523 | 71 | 270 | 0.0 | 0.0 | 0.00 | 0.00 | 0.00 | 85 | 973.8 |
| 20260906051019 | 71 | 270 | 0.0 | 0.0 | 0.00 | 0.00 | 0.00 | 84 | 973.7 |
| 20260906050518 | 71 | 270 | 0.0 | 0.0 | 0.00 | 0.00 | 0.00 | 84 | 973.6 |
| 20260906050018 | 72 | 270 | 0.0 | 0.0 | 0.00 | 0.00 | 0.00 | 84 | 973.6 |
| 20260906045517 | 72 | 270 | 0.0 | 0.0 | 0.00 | 0.00 | 0.00 | 84 | 973.6 |
| 20260906045018 | 72 | 270 | 0.0 | 0.0 | 0.00 | 0.00 | 0.00 | 84 | 973.6 |
| 20260906044516 | 72 | 270 | 0.0 | 0.0 | 0.00 | 0.00 | 0.00 | 83 | 973.6 |
| 20260906044015 | 72 | 270 | 0.0 | 0.0 | 0.00 | 0.00 | 0.00 | 83 | 973.6 |
| 20260906043514 | 72 | 270 | 0.0 | 3.0 | 0.00 | 0.00 | 0.00 | 83 | 973.6 |
| 20260906043016 | 72 | 270 | 0.0 | 3.0 | 0.00 | 0.00 | 0.00 | 83 | 973.7 |
| 20260906042513 | 72 | 270 | 0.0 | 1.0 | 0.00 | 0.00 | 0.00 | 82 | 973.6 |
| 20260906042013 | 73 | 270 | 0.0 | 1.0 | 0.00 | 0.00 | 0.00 | 82 | 973.7 |
| 20260906041512 | 73 | 270 | 0.0 | 0.0 | 0.00 | 0.00 | 0.00 | 82 | 973.7 |
| 20260906041013 | 73 | 270 | 0.0 | 0.0 | 0.00 | 0.00 | 0.00 | 82 | 973.6 |
| 20260906040510 | 73 | 270 | 0.0 | 2.0 | 0.00 | 0.00 | 0.00 | 81 | 973.7 |
| 20260906040009 | 73 | 270 | 0.0 | 2.0 | 0.00 | 0.00 | 0.00 | 81 | 973.7 |
| 20260906035513 | 74 | 270 | 0.0 | 0.0 | 0.00 | 0.00 | 0.00 | 80 | 973.8 |
| 20260906035009 | 74 | 270 | 0.0 | 0.0 | 0.00 | 0.00 | 0.00 | 79 | 973.8 |
| 20260906034512 | 74 | 270 | 0.0 | 0.0 | 0.00 | 0.00 | 0.00 | 79 | 973.8 |
| 20260906034009 | 74 | 270 | 0.0 | 0.0 | 0.00 | 0.00 | 0.00 | 79 | 973.8 |
| 20260906033507 | 74 | 270 | 0.0 | 0.0 | 0.00 | 0.00 | 0.00 | 79 | 973.9 |
| 20260906033008 | 75 | 270 | 0.0 | 0.0 | 0.00 | 0.00 | 0.00 | 78 | 974.0 |
| 20260906032507 | 75 | 270 | 0.0 | 0.0 | 0.00 | 0.00 | 0.00 | 78 | 973.9 |
| 20260906032008 | 75 | 270 | 0.0 | 2.0 | 0.00 | 0.00 | 0.00 | 78 | 973.8 |
| 20260906031507 | 75 | 270 | 0.0 | 2.0 | 0.00 | 0.00 | 0.00 | 78 | 973.8 |
| 20260906031007 | 75 | 270 | 0.0 | 2.0 | 0.00 | 0.00 | 0.00 | 78 | 973.8 |
| 20260906030506 | 75 | 270 | 0.0 | 0.0 | 0.00 | 0.00 | 0.00 | 78 | 973.9 |
| 20260906030006 | 75 | 270 | 0.0 | 0.0 | 0.00 | 0.00 | 0.00 | 78 | 973.8 |
| 20260906025510 | 75 | 270 | 0.0 | 0.0 | 0.00 | 0.00 | 0.00 | 78 | 973.8 |
| 20260906025007 | 75 | 270 | 0.0 | 0.0 | 0.00 | 0.00 | 0.00 | 77 | 973.8 |
| 20260906024506 | 75 | 270 | 0.0 | 0.0 | 0.00 | 0.00 | 0.00 | 77 | 973.6 |
| 20260906024007 | 75 | 270 | 0.0 | 0.0 | 0.00 | 0.00 | 0.00 | 76 | 973.6 |
| 20260906023506 | 75 | 270 | 0.0 | 0.0 | 0.00 | 0.00 | 0.00 | 76 | 973.6 |
| 20260906023006 | 76 | 270 | 0.0 | 0.0 | 0.00 | 0.00 | 0.00 | 76 | 973.5 |
| 20260906022506 | 76 | 270 | 0.0 | 0.0 | 0.00 | 0.00 | 0.00 | 75 | 973.5 |
| 20260906022006 | 76 | 270 | 0.0 | 2.0 | 0.00 | 0.00 | 0.00 | 75 | 973.5 |
| 20260906021506 | 76 | 270 | 0.0 | 2.0 | 0.00 | 0.00 | 0.00 | 75 | 973.4 |
| 20260906021006 | 76 | 270 | 0.0 | 2.0 | 0.00 | 0.00 | 0.00 | 74 | 973.4 |
| 20260906020505 | 77 | 270 | 0.0 | 2.0 | 0.00 | 0.00 | 0.00 | 74 | 973.4 |
| 20260906020006 | 77 | 270 | 0.0 | 2.0 | 0.00 | 0.00 | 0.00 | 73 | 973.3 |
| 20260906015504 | 77 | 270 | 1.0 | 2.0 | 0.00 | 0.00 | 0.00 | 72 | 973.2 |
| 20260906015005 | 77 | 270 | 0.0 | 2.0 | 0.00 | 0.00 | 0.00 | 72 | 973.2 |
| 20260906014512 | 77 | 270 | 0.0 | 0.0 | 0.00 | 0.00 | 0.00 | 71 | 973.1 |
| 20260906014004 | 78 | 270 | 0.0 | 1.0 | 0.00 | 0.00 | 0.00 | 71 | 973.1 |
| 20260906013504 | 78 | 270 | 0.0 | 1.0 | 0.00 | 0.00 | 0.00 | 71 | 973.1 |
| 20260906013004 | 78 | 270 | 0.0 | 0.0 | 0.00 | 0.00 | 0.00 | 70 | 973.0 |
| 20260906012506 | 78 | 270 | 0.0 | 0.0 | 0.00 | 0.00 | 0.00 | 70 | 972.9 |
| 20260906012005 | 78 | 270 | 0.0 | 0.0 | 0.00 | 0.00 | 0.00 | 70 | 972.9 |
| 20260906011504 | 79 | 270 | 0.0 | 0.0 | 0.00 | 0.00 | 0.00 | 70 | 972.8 |
| 20260906011005 | 79 | 270 | 0.0 | 1.0 | 0.00 | 0.00 | 0.00 | 69 | 972.7 |
| 20260906010504 | 79 | 270 | 0.0 | 2.0 | 0.00 | 0.00 | 0.00 | 69 | 972.6 |
| 20260906010010 | 79 | 270 | 0.0 | 2.0 | 0.00 | 0.00 | 0.00 | 68 | 972.6 |
| 20260906005503 | 80 | 270 | 0.0 | 0.0 | 0.00 | 0.00 | 0.00 | 67 | 972.6 |
| 20260906005006 | 80 | 270 | 0.0 | 0.0 | 0.00 | 0.00 | 0.00 | 67 | 972.7 |
| 20260906004503 | 80 | 270 | 0.0 | 0.0 | 0.00 | 0.00 | 0.00 | 67 | 972.6 |
| 20260906004002 | 80 | 270 | 0.0 | 1.0 | 0.00 | 0.00 | 0.00 | 66 | 972.5 |
| 20260906003502 | 80 | 270 | 0.0 | 3.0 | 0.00 | 0.00 | 0.00 | 66 | 972.5 |
| 20260906003003 | 81 | 270 | 0.0 | 3.0 | 0.00 | 0.00 | 0.00 | 65 | 972.4 |
| 20260906002502 | 81 | 270 | 0.0 | 1.0 | 0.00 | 0.00 | 0.00 | 65 | 972.5 |
| 20260906002005 | 81 | 270 | 0.0 | 1.0 | 0.00 | 0.00 | 0.00 | 64 | 972.4 |
| 20260906001502 | 81 | 270 | 0.0 | 1.0 | 0.00 | 0.00 | 0.00 | 65 | 972.2 |
| 20260906001002 | 82 | 270 | 0.0 | 1.0 | 0.00 | 0.00 | 0.00 | 63 | 972.2 |
| 20260906000502 | 82 | 270 | 0.0 | 3.0 | 0.00 | 0.00 | 0.00 | 63 | 972.1 |
| 20260906000002 | 82 | 270 | 1.0 | 3.0 | 0.00 | 0.00 | 0.00 | 63 | 972.1 |
| 20260905235502 | 82 | 270 | 0.0 | 0.0 | 0.00 | 0.00 | 0.00 | 63 | 972.0 |
| 20260905235002 | 83 | 270 | 0.0 | 2.0 | 0.00 | 0.00 | 0.00 | 63 | 971.9 |
| 20260905234501 | 83 | 270 | 0.0 | 4.0 | 0.00 | 0.00 | 0.00 | 62 | 972.0 |
| 20260905234100 | 83 | 270 | 0.0 | 4.0 | 0.00 | 0.00 | 0.00 | 62 | 972.0 |
| 20260905233600 | 84 | 270 | 0.0 | 0.0 | 0.00 | 0.00 | 0.00 | 62 | 972.0 |
| 20260905233000 | 84 | 270 | 0.0 | 2.0 | 0.00 | 0.00 | 0.00 | 61 | 972.1 |
| 20260905232603 | 84 | 270 | 0.0 | 3.0 | 0.00 | 0.00 | 0.00 | 60 | 972.0 |
| 20260905232501 | 84 | 270 | 0.0 | 3.0 | 0.00 | 0.00 | 0.00 | 61 | 972.1 |
| 20260905232100 | 85 | 270 | 0.0 | 3.0 | 0.00 | 0.00 | 0.00 | 60 | 972.0 |
| 20260905231600 | 85 | 270 | 0.0 | 3.0 | 0.00 | 0.00 | 0.00 | 61 | 972.0 |
| 20260905231100 | 85 | 271 | 0.0 | 3.0 | 0.00 | 0.00 | 0.00 | 61 | 972.0 |
| 20260905230604 | 85 | 271 | 1.0 | 3.0 | 0.00 | 0.00 | 0.00 | 60 | 972.0 |
| 20260905230118 | 85 | 270 | 0.0 | 1.0 | 0.00 | 0.00 | 0.00 | 60 | 972.0 |
| 20260905225559 | 85 | 270 | 0.0 | 1.0 | 0.00 | 0.00 | 0.00 | 60 | 972.0 |
| 20260905225100 | 86 | 270 | 0.0 | 1.0 | 0.00 | 0.00 | 0.00 | 59 | 972.0 |
| 20260905224600 | 86 | 270 | 0.0 | 1.0 | 0.00 | 0.00 | 0.00 | 59 | 972.0 |
| 20260905224058 | 87 | 270 | 0.0 | 4.0 | 0.00 | 0.00 | 0.00 | 58 | 972.1 |
| 20260905223559 | 87 | 270 | 0.0 | 4.0 | 0.00 | 0.00 | 0.00 | 56 | 972.0 |
| 20260905223059 | 87 | 234 | 1.0 | 3.0 | 0.00 | 0.00 | 0.00 | 56 | 972.0 |
| 20260905222559 | 87 | 234 | 1.0 | 3.0 | 0.00 | 0.00 | 0.00 | 56 | 972.0 |
| 20260905222059 | 87 | 244 | 0.0 | 3.0 | 0.00 | 0.00 | 0.00 | 58 | 971.9 |
| 20260905221558 | 87 | 244 | 0.0 | 2.0 | 0.00 | 0.00 | 0.00 | 57 | 971.9 |
| 20260905221059 | 88 | 244 | 0.0 | 4.0 | 0.00 | 0.00 | 0.00 | 58 | 971.8 |
| 20260905220559 | 88 | 244 | 1.0 | 4.0 | 0.00 | 0.00 | 0.00 | 57 | 971.8 |
| 20260905220058 | 88 | 244 | 0.0 | 3.0 | 0.00 | 0.00 | 0.00 | 57 | 971.8 |
| 20260905215601 | 88 | 244 | 0.0 | 3.0 | 0.00 | 0.00 | 0.00 | 57 | 971.8 |
| 20260905215057 | 88 | 244 | 0.0 | 4.0 | 0.00 | 0.00 | 0.00 | 57 | 971.8 |
| 20260905214556 | 89 | 252 | 0.0 | 4.0 | 0.00 | 0.00 | 0.00 | 57 | 971.7 |
| 20260905214056 | 89 | 252 | 1.0 | 4.0 | 0.00 | 0.00 | 0.00 | 55 | 971.7 |
| 20260905213556 | 89 | 252 | 1.0 | 6.0 | 0.00 | 0.00 | 0.00 | 56 | 971.6 |
| 20260905213058 | 89 | 262 | 1.0 | 4.0 | 0.00 | 0.00 | 0.00 | 55 | 971.5 |
| 20260905212557 | 90 | 263 | 2.0 | 4.0 | 0.00 | 0.00 | 0.00 | 55 | 971.4 |